STARLINK-2614, 48380

Orbit data source: Space-Track

STARLINK-2614, 48380 is a payload satellite owned by SpaceX/Seattle (US) in LEO that was launched on Tue, 04 May 2021 UTC via an FALCON 9 launch vehicle from the Air Force Eastern Test Range (AFETR). Payload-class satellites include a variety of spacecraft equipped with specific instruments for various scientific and technological missions. These include communications satellites like Starlink; space stations such as the ISS; scientific satellites like the Hubble; Earth observation satellites from companies like Planet Labs, Umbra, and HawkEye 360; GPS; miniature CubeSats for education and research; and military/defense satellites.

Loading next visibility...
Identifier
48380, 2021-038AD
Orbit
LEO
Country
Flag of USUS
Related business
Manufacturer
SpaceX/Seattle
Mission
Operational Commercial Communications
Bus & Motor
STARLINK, Unknown motor
Mass
260 kg wet, ~248 kg dry
Launch date (UTC)
2021-05-04 (5 years ago)
Launch vehicle
FALCON 9
Launch site
Air Force Eastern Test Range (AFETR)
Object type
Payload
Rocket body
Debris
Shape & HBR
Box + 1 Pan, 10.1 m
Radar Cross Section
13.562 m², Large (>1 m²)

Expand to show TLE details & history
Last TLE update: 2 days ago

TLE from 2 days ago
0 STARLINK-2614
1 48380U 21038AD  26171.41284951 -.00000174  00000-0  61496-5 0  9992
2 48380  53.1585 227.7407 0000886  86.2135 273.8967 15.31693592282994
Epoch: 2026-06-20T09:54Z
TLE epoch observation values (Epoch: 2026-06-20T09:54:30.197Z)
Latitude
-0.00009°
Longitude
170.48698°
Altitude
471.618 km
Speed
7.631 km/s
True Right ascension
15h 10m 57s
True Declination
0° 00' 00"
Sunlit
Object was in full shadow at epoch
Visualization orbit readout
Latitude
Unknown
Longitude
Unknown
Altitude
Unknown
Speed
Unknown
Apparent Right ascension
Unknown
Apparent Declination
Unknown
Sunlit
N/A
Visualization observer readout
Local Sidereal Time
21:54:16
Azimuth
Unknown
Elevation
Unknown
Doppler factor
Unknown
Orbital elements
Apogee altitude
471.623 km
Perigee altitude
470.409 km
Semi-major axis
6,849.153 km
Eccentricity
0.00009
Inclination
53.1585°
RAAN
227.7407°
Arg. of periapsis
86.2135°
True anomaly
273.88657°
Mean anomaly
273.8967°
Eccentric anomaly
273.89164°
Mean motion
3.82902 °/min
Orbital period
94.02 mins
BSTAR
0.0000061496
Loading maneuver chart data...
Computing Atmospheric mass density...

Documentation

Showing up to 5 results
|